Change the Weather History Date:

Sunday, October 27, 2013

  Actual Average Record
Temperature  
Mean Temperature 40 °F -  
Max Temperature 52 °F 44 °F - ()
Min Temperature 27 °F 25 °F - ()
Degree Days  
Heating Degree Days 26    
Moisture  
Dew Point 25 °F    
Average Humidity 58    
Maximum Humidity 86    
Minimum Humidity 23    
Precipitation  
Precipitation 0.00 in 0.04 in - ()
Sea Level Pressure  
Sea Level Pressure 30.18 in    
Wind  
Wind Speed 5 mph ()    
Max Wind Speed 10 mph    
Max Gust Speed -    
Visibility 6.2 miles    
Events      
T = Trace of Precipitation, MM = Missing Value Source: Averaged Metar Reports

Daily Weather History Graph

Daily Weather History Graph

Search for Another Location

Airport or City:

Trip Planner

Search our weather history database for the weather conditions in past years. The results will help you decide how hot, cold, wet, or windy it might be!

Date:

Astronomy

Oct. 27, 2013 Rise Set
Actual Time 5:31 AM EET 4:10 PM EET
Civil Twilight 5:03 AM EET 4:38 PM EET
Nautical Twilight 4:31 AM EET 5:10 PM EET
Astronomical Twilight 4:00 AM EET 5:42 PM EET
Moon 11:03 PM EET (10/27) 12:08 PM EET (10/27)
Length of Visible Light 11h 34m
Length of Day
10h 38m
Last Quarter, 46% of the Moon is Illuminated
Oct 27
Last Quarter
Nov 3
New
Nov 10
First Quarter
Nov 17
Full
Nov 25
Last Quarter

Hourly Weather History & Observations

Time (EET) Temp. Windchill Dew Point Humidity Pressure Visibility Wind Dir Wind Speed Gust Speed Precip Events Conditions
12:50 AM 35.6 °F 30.7 °F 24.8 °F 65% 30.18 in - ENE 5.8 mph - N/A   Clear
1:50 AM 33.8 °F 27.7 °F 24.8 °F 70% 30.15 in 6.2 mi East 6.9 mph - N/A   Partly Cloudy
3:00 AM 34 °F - 26 °F 64%  in 6 mi East 10.4 mph - -   Partly Cloudy
3:50 AM 37.4 °F 30.3 °F 28.4 °F 70% 30.18 in 6.2 mi East 10.4 mph - N/A   Scattered Clouds
3:50 AM 33.8 °F 27.7 °F 26.6 °F 75% 30.18 in 6.2 mi ENE 6.9 mph - N/A   Scattered Clouds
4:50 AM 28.4 °F 19.7 °F 24.8 °F 86% 30.18 in 6.2 mi East 9.2 mph - N/A   Scattered Clouds
5:50 AM 28.4 °F 21.2 °F 23.0 °F 80% 30.18 in 6.2 mi East 6.9 mph - N/A   Partly Cloudy
6:50 AM 35.6 °F 29.9 °F 28.4 °F 75% 30.21 in - ENE 6.9 mph - N/A   Clear
7:50 AM 39.2 °F - 28.4 °F 65% 30.21 in - Calm Calm - N/A   Clear
8:00 AM 40 °F - 28 °F 51%  in 6 mi Calm Calm - -  
8:50 AM 42.8 °F - 28.4 °F 57% 30.21 in - Variable 2.3 mph - N/A   Clear
9:50 AM 44.6 °F - 26.6 °F 49% 30.21 in - Variable 2.3 mph - N/A   Clear
10:50 AM 48.2 °F - 26.6 °F 43% 30.18 in - ENE 5.8 mph - N/A   Clear
11:50 AM 50.0 °F - 24.8 °F 37% 30.18 in 6.2 mi ENE 6.9 mph - N/A   Partly Cloudy
12:50 PM 50.0 °F - 24.8 °F 37% 30.18 in 6.2 mi ENE 6.9 mph - N/A   Partly Cloudy
1:50 PM 51.8 °F - 24.8 °F 35% 30.15 in 6.2 mi ENE 8.1 mph - N/A   Partly Cloudy
2:00 PM 52 °F - 25 °F 23%  in 6 mi ENE 8.1 mph - -   Scattered Clouds
2:50 PM 51.8 °F - 23.0 °F 33% 30.15 in 6.2 mi ENE 9.2 mph - N/A   Partly Cloudy
3:50 PM 46.4 °F 42.4 °F 23.0 °F 40% 30.15 in 6.2 mi East 8.1 mph - N/A   Partly Cloudy
4:50 PM 41.0 °F 35.8 °F 26.6 °F 57% 30.18 in 6.2 mi SE 8.1 mph - N/A   Partly Cloudy
5:50 PM 39.2 °F 33.0 °F 24.8 °F 56% 30.18 in - SE 9.2 mph - N/A   Clear
6:50 PM 37.4 °F 33.8 °F 24.8 °F 60% 30.18 in 6.2 mi ENE 4.6 mph - N/A   Partly Cloudy
7:50 PM 33.8 °F 30.8 °F 24.8 °F 70% 30.21 in 6.2 mi SSE 3.5 mph - N/A   Partly Cloudy
8:00 PM 33 °F - 24 °F 57%  in 6 mi SSE 3.5 mph - -   Scattered Clouds
8:50 PM 32.0 °F - 23.0 °F 69% 30.21 in - Variable 1.2 mph - N/A   Clear
9:50 PM 30.2 °F - 23.0 °F 75% 30.21 in - Calm Calm - N/A   Clear
10:50 PM 28.4 °F - 23.0 °F 80% 30.18 in - Calm Calm - N/A   Clear